Вернуться в каталог

STARLINK-11637

АктивенСвязьVLEO
NORAD 63190·PAYLOAD·🇺🇸 United States

Запущен Mar 13, 2025 с Cape Canaveral Space Force Station

Loading…

Ближайшие Пролёты (ближайшие 24 часа)

TLE

СвежийSource: CelesTrak SupGP

Эпоха: Sep 14, 2026, 21:24 UTC

1 63190C 25048H   26257.89215278 -.00043646  00000+0 -33894-3 0  2573
2 63190  43.0004 259.8406 0001713 249.8775 100.7753 15.70863789    18

Отслеживайте STARLINK-11637 в реальном времени с AllMySat

Download on the App Store